This is the latest recevied weather packets stored in our database for station/object EA5I-10. If no packets are shown the sender has not sent any weather packets the latest 10 day(s).
| Time | Temp. | Humidity | Pressure | Rain* | Wind** | Luminosity | Snow |
|---|---|---|---|---|---|---|---|
| 1777839486 | 20.56° C | 59% | 1013.8 hPa | - | - | - | - |
| 1777838585 | 20.56° C | 59% | 1013.5 hPa | - | - | - | - |
| 1777837685 | 20.56° C | 59% | 1013.3 hPa | - | - | - | - |
| 1777836785 | 20.56° C | 59% | 1013.2 hPa | - | - | - | - |
| 1777835885 | 20.56° C | 59% | 1012.9 hPa | - | - | - | - |
| 1777834985 | 20.56° C | 59% | 1012.8 hPa | - | - | - | - |
| 1777834085 | 21.11° C | 58% | 1012.6 hPa | - | - | - | - |
| 1777833185 | 21.11° C | 58% | 1012.5 hPa | - | - | - | - |
| 1777832285 | 21.11° C | 58% | 1012.5 hPa | - | - | - | - |
| 1777831385 | 21.11° C | 58% | 1012.5 hPa | - | - | - | - |
| 1777830485 | 21.11° C | 58% | 1012.4 hPa | - | - | - | - |
| 1777829584 | 21.11° C | 58% | 1012.3 hPa | - | - | - | - |
| 1777828684 | 21.11° C | 58% | 1012.3 hPa | - | - | - | - |
| 1777827784 | 21.11° C | 57% | 1012.4 hPa | - | - | - | - |
| 1777826884 | 21.67° C | 56% | 1012.5 hPa | - | - | - | - |
| 1777825984 | 21.11° C | 56% | 1012.4 hPa | - | - | - | - |
| 1777825084 | 21.11° C | 57% | 1012.6 hPa | - | - | - | - |
| 1777824184 | 21.11° C | 56% | 1012.6 hPa | - | - | - | - |
| 1777823284 | 21.11° C | 56% | 1012.7 hPa | - | - | - | - |
| 1777822383 | 21.11° C | 56% | 1012.7 hPa | - | - | - | - |
| 1777821483 | 21.11° C | 56% | 1012.6 hPa | - | - | - | - |
| 1777820583 | 21.11° C | 56% | 1012.7 hPa | - | - | - | - |
| 1777819683 | 21.11° C | 56% | 1012.9 hPa | - | - | - | - |
| 1777818783 | 20.56° C | 56% | 1013.4 hPa | - | - | - | - |
| 1777817882 | 20° C | 58% | 1013.7 hPa | - | - | - | - |
* Rain since midnight (hover to see other rain measurements)
** Current wind speed in m/s (hover to see current wind gust speed)